TimeCDT,TemperatureF,Dew PointF,Humidity,Sea Level PressureIn,VisibilityMPH,Wind Direction,Wind SpeedMPH,Gust SpeedMPH,PrecipitationIn,Events,Conditions,WindDirDegrees,DateUTC
12:15 AM,68.0,51.8,56,29.92,10.0,NNE,3.5,-,N/A,,Partly Cloudy,20,2012-09-30 05:15:00
12:55 AM,66.2,51.8,60,29.92,10.0,NE,3.5,-,N/A,,Clear,40,2012-09-30 05:55:00
1:15 AM,66.2,50.0,56,29.92,10.0,NNE,3.5,-,N/A,,Clear,30,2012-09-30 06:15:00
1:35 AM,66.2,50.0,56,29.92,10.0,Calm,Calm,-,N/A,,Clear,0,2012-09-30 06:35:00
1:55 AM,66.2,50.0,56,29.92,10.0,Calm,Calm,-,N/A,,Scattered Clouds,0,2012-09-30 06:55:00
2:15 AM,66.2,50.0,56,29.91,10.0,Calm,Calm,-,N/A,,Overcast,0,2012-09-30 07:15:00
2:35 AM,66.2,50.0,56,29.91,10.0,Calm,Calm,-,N/A,,Overcast,0,2012-09-30 07:35:00
2:55 AM,66.2,50.0,56,29.91,10.0,Calm,Calm,-,N/A,,Overcast,0,2012-09-30 07:55:00
3:15 AM,66.2,50.0,56,29.90,10.0,Calm,Calm,-,N/A,,Overcast,0,2012-09-30 08:15:00
3:35 AM,66.2,48.2,52,29.90,10.0,Calm,Calm,-,N/A,,Overcast,0,2012-09-30 08:35:00
3:55 AM,66.2,48.2,52,29.89,10.0,Calm,Calm,-,N/A,,Overcast,0,2012-09-30 08:55:00
4:15 AM,66.2,48.2,52,29.89,10.0,Calm,Calm,-,N/A,,Overcast,0,2012-09-30 09:15:00
4:35 AM,64.4,48.2,56,29.88,10.0,Calm,Calm,-,N/A,,Overcast,0,2012-09-30 09:35:00
4:55 AM,64.4,48.2,56,29.88,10.0,NNE,3.5,-,N/A,,Overcast,30,2012-09-30 09:55:00
5:15 AM,64.4,48.2,56,29.88,10.0,NE,4.6,-,N/A,,Overcast,40,2012-09-30 10:15:00
5:35 AM,64.4,48.2,56,29.87,10.0,NE,4.6,-,N/A,,Mostly Cloudy,40,2012-09-30 10:35:00
5:55 AM,64.4,48.2,56,29.87,10.0,ENE,3.5,-,N/A,,Mostly Cloudy,60,2012-09-30 10:55:00
6:15 AM,64.4,48.2,56,29.87,10.0,Calm,Calm,-,N/A,,Scattered Clouds,0,2012-09-30 11:15:00
6:35 AM,64.4,46.4,52,29.87,10.0,Calm,Calm,-,N/A,,Mostly Cloudy,0,2012-09-30 11:35:00
6:55 AM,64.4,46.4,52,29.88,10.0,NE,3.5,-,N/A,,Overcast,50,2012-09-30 11:55:00
7:15 AM,64.4,46.4,52,29.88,9.0,NE,3.5,-,N/A,,Overcast,40,2012-09-30 12:15:00
7:35 AM,62.6,46.4,55,29.88,5.0,NE,3.5,-,N/A,Rain,Light Rain,40,2012-09-30 12:35:00
7:55 AM,62.6,46.4,55,29.88,5.0,Calm,Calm,-,N/A,,Light Drizzle,0,2012-09-30 12:55:00
8:15 AM,62.6,46.4,55,29.88,6.0,Calm,Calm,-,N/A,,Light Drizzle,0,2012-09-30 13:15:00
8:35 AM,62.6,46.4,55,29.89,5.0,NNE,4.6,-,N/A,,Light Drizzle,30,2012-09-30 13:35:00
8:55 AM,62.6,46.4,55,29.89,6.0,NNE,3.5,-,N/A,,Light Drizzle,30,2012-09-30 13:55:00
9:15 AM,62.6,46.4,55,29.89,5.0,NE,3.5,-,N/A,,Light Drizzle,50,2012-09-30 14:15:00
9:35 AM,62.6,46.4,55,29.89,4.0,NE,4.6,-,N/A,,Drizzle,40,2012-09-30 14:35:00
9:55 AM,62.6,46.4,55,29.88,5.0,NE,4.6,-,N/A,,Haze,40,2012-09-30 14:55:00
10:15 AM,64.4,46.4,52,29.87,3.0,Calm,Calm,-,N/A,,Light Drizzle,0,2012-09-30 15:15:00
10:55 AM,64.4,48.2,56,29.85,4.0,East,3.5,-,N/A,,Light Drizzle,80,2012-09-30 15:55:00
11:15 AM,64.4,48.2,56,29.85,7.0,East,3.5,-,N/A,,Light Drizzle,80,2012-09-30 16:15:00
11:35 AM,64.4,48.2,56,29.85,4.0,Calm,Calm,-,N/A,,Light Drizzle,0,2012-09-30 16:35:00
11:55 AM,64.4,48.2,56,29.85,1.8,NE,3.5,-,0.02,Rain,Rain,40,2012-09-30 16:55:00
12:15 PM,64.4,46.4,52,29.85,2.0,North,4.6,-,0.01,Rain,Rain,360,2012-09-30 17:15:00
12:35 PM,64.4,46.4,52,29.85,1.8,NNE,5.8,-,0.04,Rain,Rain,20,2012-09-30 17:35:00
12:55 PM,64.4,46.4,52,29.83,1.2,NNE,6.9,-,0.10,Rain,Rain,20,2012-09-30 17:55:00
1:15 PM,64.4,46.4,52,29.82,1.0,NE,6.9,-,0.04,Rain,Rain,40,2012-09-30 18:15:00
1:35 PM,62.6,46.4,55,29.80,1.0,NNE,10.4,-,0.13,Rain,Rain,30,2012-09-30 18:35:00
1:55 PM,62.6,46.4,55,29.81,0.8,NNE,8.1,-,0.26,Rain,Heavy Rain,20,2012-09-30 18:55:00
2:15 PM,62.6,46.4,55,29.79,1.0,NNE,5.8,-,0.09,Rain,Rain,30,2012-09-30 19:15:00
2:35 PM,62.6,46.4,55,29.78,1.0,NE,9.2,-,0.19,Rain,Heavy Rain,40,2012-09-30 19:35:00
2:55 PM,62.6,46.4,55,29.76,0.8,NE,11.5,16.1,0.32,Rain,Rain,40,2012-09-30 19:55:00
3:15 PM,62.6,46.4,55,29.75,1.0,NE,6.9,-,0.04,Rain,Rain,40,2012-09-30 20:15:00
3:35 PM,62.6,46.4,55,29.76,1.2,North,5.8,-,0.09,Rain,Rain,10,2012-09-30 20:35:00
3:55 PM,60.8,44.6,55,29.75,0.8,NE,10.4,-,0.28,Rain,Heavy Rain,40,2012-09-30 20:55:00
4:15 PM,60.8,44.6,55,29.75,1.0,NE,8.1,-,0.07,Rain,Rain,50,2012-09-30 21:15:00
4:55 PM,60.8,42.8,52,29.73,1.8,NE,9.2,26.5,0.27,Rain,Light Rain,40,2012-09-30 21:55:00
5:15 PM,60.8,42.8,52,29.73,1.0,NE,11.5,16.1,0.09,Rain,Heavy Rain,40,2012-09-30 22:15:00
5:35 PM,59.0,42.8,55,29.73,1.0,NE,5.8,-,0.30,Rain,Heavy Rain,40,2012-09-30 22:35:00
5:55 PM,59.0,42.8,55,29.72,2.5,NE,9.2,18.4,0.49,Rain,Light Rain,40,2012-09-30 22:55:00
6:15 PM,60.8,42.8,52,29.70,2.0,NE,10.4,19.6,0.01,,Drizzle,40,2012-09-30 23:15:00
6:35 PM,60.8,44.6,55,29.71,2.5,NE,8.1,-,0.02,Rain,Light Rain,50,2012-09-30 23:35:00
6:55 PM,60.8,44.6,55,29.70,1.5,NE,8.1,-,0.26,Rain,Rain,40,2012-09-30 23:55:00
7:15 PM,60.8,44.6,55,29.70,2.0,NNE,9.2,-,0.04,Rain,Rain,20,2012-10-01 00:15:00
7:35 PM,60.8,44.6,55,29.70,3.0,NE,5.8,-,0.05,,Light Drizzle,40,2012-10-01 00:35:00
7:55 PM,60.8,44.6,55,29.70,2.5,NE,5.8,-,0.06,Rain,Rain,40,2012-10-01 00:55:00
8:15 PM,62.6,44.6,52,29.71,2.0,NNE,4.6,-,0.01,Rain,Light Rain,30,2012-10-01 01:15:00
8:35 PM,62.6,44.6,52,29.70,2.0,NNE,10.4,-,0.03,,Light Drizzle,20,2012-10-01 01:35:00
8:55 PM,60.8,44.6,55,29.70,5.0,NNE,8.1,-,0.03,,Drizzle,20,2012-10-01 01:55:00
9:15 PM,60.8,44.6,55,29.70,1.5,North,9.2,-,0.04,Rain,Light Rain,10,2012-10-01 02:15:00
9:35 PM,60.8,44.6,55,29.68,2.5,NE,15.0,19.6,0.05,Rain,Light Rain,40,2012-10-01 02:35:00
9:55 PM,62.6,44.6,52,29.68,4.0,NE,9.2,17.3,0.06,,Light Drizzle,40,2012-10-01 02:55:00
10:15 PM,62.6,46.4,55,29.68,1.5,NE,10.4,17.3,0.08,Rain,Light Rain,50,2012-10-01 03:15:00
10:35 PM,62.6,46.4,55,29.67,2.0,NE,10.4,-,0.10,Rain,Heavy Rain,40,2012-10-01 03:35:00
10:55 PM,62.6,46.4,55,29.66,3.0,NE,10.4,-,0.13,,Light Drizzle,50,2012-10-01 03:55:00
11:55 PM,62.6,46.4,55,29.63,2.0,NE,13.8,18.4,0.29,Rain,Light Rain,40,2012-10-01 04:55:00